Location: Borovka
(49.7741°N, 14.5280°E)
Time: 17:13:08
(UTC+00:00)

Cosmos 1190 Rocket - Pass Details

Date: 17 November 2025
Orbit: 752 x 775 km, 74.1° (Epoch: 09 December)

Event Time Altitude Azimuth Distance (km) Brightness Sun altitude
Rises 16:51:30 0° 183° (S) 3,239 7.4 -15.2°
Reaches altitude 10° 16:53:57 10° 177° (S) 2,318 6.6 -15.6°
Maximum altitude 16:58:57 46° 105° (ESE) 1,038 4.3 -16.4°
Enters shadow 17:02:10 21° 43° (NE) 1,694 5.3 -16.9°
